Погода в Диббе

Объединённые Арабские Эмираты     25°37′20″N   56°16′23″E
темп.,
°C
ветер,
м/с
пор.,
м/с
влажн.,
%
обл.,
%
осадки,
мм/ч
давл.,
гПа
погр.,
м
26 июня, вс
вс2601:00+32зюз22465 0.0 99717
04:00+31с11424 0.0 99713
07:00+34з223395 0.0 998138
10:00+42зюз3314100 0.0 998655
13:00+43всв33228 0.0 9961713
16:00+42всв32229 0.0 9951576
19:00+31вюв22670 0.0 998271
22:00+35зюз344415 0.0 99764
27 июня, пн
пн2701:00+30всв44724 0.0 997188
04:00+28в348524 0.0 999418
07:00+28в468392 0.0 1001514
10:00+34в4553100 0.0 1000577
13:00+36в434697 0.0 999722
16:00+36в43471 0.0 998606
19:00+31в33614 0.0 999329
22:00+30вюв226621 0.0 1000137
28 июня, вт
вт2801:00+29св2270100 0.0 99960
04:00+27в239217 0.0 999204
07:00+28юв118311 0.0 1001261
10:00+36в12415 0.0 1000930
13:00+40в33323 0.0 9981519
16:00+37в32423 0.0 997781
19:00+34вюв22550 0.0 997256
22:00+32всв11620 0.0 998130
29 июня, ср
ср2901:00+32зсз11590 0.0 99760
04:00+28в33838 0.0 998261
07:00+30юв117497 0.0 999202
10:00+37всв23405 0.0 998986
13:00+40св24318 0.0 9961309
16:00+39всв23333 0.0 9941073
19:00+37юв11335 0.0 994180
22:00+32ссв12505 0.0 99667
30 июня, чт
чт3001:00+31зюз11625 0.0 99532
04:00+29вюв227697 0.0 99435
07:00+29в22775 0.0 996234
10:00+35в22495 0.0 996640
13:00+40в44308 0.0 9931311
16:00+40в323152 0.0 9921172
19:00+34вюв325467 0.0 993248
22:00+31вюв226767 0.0 994121